Latest Weather Observations for Adelaide Airport

IDS60801

Issued at 2:05 pm CDT Wednesday 22 October 2014 (issued every 30 minutes, with the page automatically refreshed every 10 minutes)

About weather observations | Map of weather stations | Latest weather observations for SA | Other Formats
Station Details ID: 023034 Name: ADELAIDE AIRPORT Lat: -34.95 Lon: 138.52 Height: 2.0 m
Data from the previous 72 hours. | See also: Recent months at Adelaide Airport
Date/Time
CDT
Temp
°C
App
Temp
°C
Dew
Point
Rel
Hum
%
Delta-T
°C
Wind Press
QNH
hPa
Press
MSL
hPa
Rain
since 9 am
mm
Dir
 
Spd
km/h
Gust
km/h
Spd
kts
Gust
kts
22/02:00pm 23.2 17.9 14.2 57 5.3 SW 35 50 19 27 1016.0 - 0.0
22/01:30pm 22.8 17.8 14.1 58 5.1 SW 33 46 18 25 1016.1 - 0.0
22/01:00pm 23.3 19.5 13.7 54 5.6 SSW 26 33 14 18 1016.2 - 0.0
22/12:30pm 23.6 20.2 13.8 54 5.7 SW 24 32 13 17 1016.5 - 0.0
22/12:00pm 23.7 21.2 13.6 53 5.9 SW 19 24 10 13 1016.5 1016.5 0.0
22/11:30am 23.3 21.5 14.5 57 5.2 WSW 17 22 9 12 1016.6 - 0.0
22/11:00am 24.4 22.1 11.9 45 7.1 W 15 20 8 11 1016.5 - 0.0
22/10:30am 24.6 21.7 8.0 34 8.8 WSW 13 15 7 8 1016.5 - 0.0
22/10:00am 22.3 20.3 12.6 54 5.5 WSW 15 19 8 10 1016.5 - 0.0
22/09:30am 21.9 21.8 15.0 65 4.1 W 9 11 5 6 1016.3 - 0.0
22/09:00am 21.6 21.6 15.2 67 3.8 NW 9 13 5 7 1016.2 1016.2 0.0
22/08:30am 22.9 24.2 14.2 58 5.1 CALM 0 0 0 0 1016.1 - 0.0
22/08:00am 20.1 21.1 14.4 69 3.3 SW 2 6 1 3 1016.0 - 0.0
22/07:30am 18.7 18.3 14.0 74 2.7 WSW 9 11 5 6 1015.8 - 0.0
22/07:00am 18.2 16.9 13.6 74 2.6 SSW 13 19 7 10 1015.7 - 0.0
22/06:30am 19.6 18.2 11.0 57 4.7 NW 9 20 5 11 1015.3 - 0.0
22/06:00am 20.4 18.6 9.3 49 5.9 SSW 9 11 5 6 1015.0 1015.0 0.0
22/05:30am 18.7 16.4 7.5 48 5.7 SSE 9 11 5 6 1014.3 - 0.0
22/05:00am 18.7 17.3 7.2 47 5.8 E 4 9 2 5 1014.4 - 0.0
22/04:30am 20.5 18.5 6.4 40 7.1 SE 6 9 3 5 1014.3 - 0.0
22/04:00am 21.2 19.2 6.9 39 7.3 NE 7 11 4 6 1014.3 - 0.0
22/03:30am 18.6 17.0 8.6 52 5.2 ESE 7 15 4 8 1014.2 - 0.0
22/03:00am 21.2 19.6 8.7 44 6.6 E 7 11 4 6 1014.6 1014.6 0.0
22/02:30am 19.5 18.4 11.9 61 4.2 E 9 11 5 6 1014.9 - 0.0
22/02:00am 20.4 19.2 12.8 61 4.3 SW 11 15 6 8 1015.4 - 0.0
22/01:30am 21.9 18.1 11.3 51 5.9 SW 22 30 12 16 1015.8 - 0.0
22/01:05am 23.5 18.2 9.9 42 7.4 SSW 28 35 15 19 1015.7 - 0.0
22/01:00am 24.9 22.2 7.4 32 9.2 NE 11 15 6 8 1015.6 - 0.0
22/12:30am 25.0 21.0 4.9 27 10.1 NNE 15 17 8 9 1015.4 - 0.0
22/12:00am 25.9 22.7 5.0 26 10.6 NE 11 13 6 7 1015.8 1015.8 0.0
 
Date/Time
CDT
Temp
°C
App
Temp
°C
Dew
Point
Rel
Hum
%
Delta-T
°C
Wind Press
QNH
hPa
Press
MSL
hPa
Rain
since 9 am
mm
Dir
 
Spd
km/h
Gust
km/h
Spd
kts
Gust
kts
21/11:30pm 25.7 22.5 5.2 26 10.4 NE 11 15 6 8 1016.2 - 0.0
21/11:00pm 27.3 23.1 3.7 22 11.8 NNE 15 17 8 9 1016.5 - 0.0
21/10:30pm 30.2 25.8 0.5 15 14.3 NNE 13 20 7 11 1016.7 - 0.0
21/10:00pm 26.5 22.8 4.5 24 11.1 E 13 15 7 8 1016.7 - 0.0
21/09:30pm 27.0 22.9 4.1 23 11.5 NE 15 17 8 9 1016.5 - 0.0
21/09:00pm 27.4 25.0 5.2 24 11.4 NNE 7 7 4 4 1016.2 1016.2 0.0
21/08:30pm 27.6 23.5 6.2 25 11.2 E 17 19 9 10 1015.8 - 0.0
21/08:00pm 28.3 24.8 5.3 23 11.9 E 13 17 7 9 1015.7 - 0.0
21/07:30pm 30.0 26.0 5.0 20 13.0 E 15 17 8 9 1015.9 - 0.0
21/07:00pm 32.3 28.6 2.3 15 15.1 E 11 15 6 8 1015.8 - 0.0
21/06:30pm 33.0 29.9 1.6 13 15.7 E 7 9 4 5 1015.8 - 0.0
21/06:00pm 33.5 30.3 0.8 12 16.2 ESE 7 9 4 5 1015.8 1015.8 0.0
21/05:30pm 34.3 32.6 2.0 13 16.4 CALM 0 0 0 0 1015.9 - 0.0
21/05:00pm 34.0 32.0 -0.2 11 16.7 CALM 0 0 0 0 1016.0 - 0.0
21/04:30pm 33.7 30.3 -0.5 11 16.6 SW 7 9 4 5 1016.1 - 0.0
21/04:00pm 33.9 30.0 0.9 12 16.4 W 11 13 6 7 1016.4 - 0.0
21/03:30pm 35.1 29.9 -2.4 9 17.8 W 15 20 8 11 1016.4 - 0.0
21/03:00pm 35.8 30.6 -2.8 8 18.3 NW 15 19 8 10 1016.6 1016.6 0.0
21/02:30pm 36.0 30.2 -4.5 7 18.7 NW 17 26 9 14 1017.1 - 0.0
21/02:00pm 36.3 29.5 -5.3 7 19.0 NW 22 30 12 16 1017.4 - 0.0
21/01:30pm 36.7 31.3 1.3 11 18.0 NNE 19 33 10 18 1017.6 - 0.0
21/01:00pm 36.7 30.3 0.9 10 18.1 NE 24 33 13 18 1018.0 - 0.0
21/12:30pm 35.3 28.1 0.6 11 17.3 NNE 28 35 15 19 1018.4 - 0.0
21/12:00pm 34.9 27.7 0.4 11 17.1 NNE 28 39 15 21 1018.8 1018.8 0.0
21/11:30am 34.0 26.2 -0.7 11 16.8 NNE 30 37 16 20 1019.0 - 0.0
21/11:00am 33.9 26.1 -0.5 11 16.7 NNE 30 41 16 22 1019.2 - 0.0
21/10:30am 32.8 24.5 -0.3 12 16.0 NNE 33 41 18 22 1019.4 - 0.0
21/10:00am 31.7 23.3 -1.0 12 15.5 NNE 33 46 18 25 1019.3 - 0.0
21/09:30am 31.5 23.4 1.1 14 14.9 NNE 33 43 18 23 1019.3 - 0.0
21/09:00am 29.7 22.7 1.7 16 13.7 NE 28 33 15 18 1019.2 1019.2 0.2
21/08:30am 28.0 21.9 2.6 19 12.5 NE 24 33 13 18 1019.3 - 0.2
21/08:00am 26.1 20.3 2.3 21 11.5 NE 22 28 12 15 1019.3 - 0.2
21/07:30am 25.1 18.8 1.7 21 11.1 NE 24 32 13 17 1019.0 - 0.2
21/07:00am 24.1 17.3 1.1 22 10.7 NE 26 30 14 16 1018.7 - 0.2
21/06:30am 24.3 17.1 0.4 20 11.0 NE 28 35 15 19 1018.5 - 0.2
21/06:00am 24.1 16.9 0.7 21 10.8 NE 28 35 15 19 1018.2 1018.2 0.2
21/05:30am 24.2 17.4 0.6 21 10.9 NNE 26 33 14 18 1018.1 - 0.2
21/05:00am 23.9 17.1 1.1 22 10.6 NNE 26 32 14 17 1018.0 - 0.2
21/04:30am 23.5 16.8 1.4 23 10.3 NNE 26 32 14 17 1018.0 - 0.2
21/04:00am 24.1 17.3 1.1 22 10.7 NNE 26 33 14 18 1018.1 - 0.2
21/03:30am 24.1 19.2 1.9 23 10.5 NE 17 26 9 14 1018.3 - 0.2
21/03:00am 24.6 17.3 2.5 23 10.6 ENE 30 39 16 21 1018.4 1018.4 0.2
21/02:30am 25.8 18.6 0.9 19 11.7 ENE 28 39 15 21 1018.7 - 0.2
21/02:00am 25.7 18.9 0.6 19 11.7 ENE 26 35 14 19 1019.0 - 0.2
21/01:30am 25.9 19.1 0.7 19 11.8 ENE 26 35 14 19 1019.3 - 0.2
21/01:00am 26.2 19.0 0.5 18 12.0 ENE 28 39 15 21 1019.5 - 0.2
21/12:30am 26.4 19.1 0.2 18 12.2 ENE 28 37 15 20 1019.8 - 0.2
21/12:00am 25.7 19.2 0.6 19 11.7 E 24 32 13 17 1020.1 1020.1 0.2
 
Date/Time
CDT
Temp
°C
App
Temp
°C
Dew
Point
Rel
Hum
%
Delta-T
°C
Wind Press
QNH
hPa
Press
MSL
hPa
Rain
since 9 am
mm
Dir
 
Spd
km/h
Gust
km/h
Spd
kts
Gust
kts
20/11:30pm 26.3 19.0 -0.1 17 12.2 E 28 39 15 21 1020.3 - 0.2
20/11:00pm 26.1 18.8 -0.1 18 12.1 E 28 37 15 20 1020.6 - 0.2
20/10:30pm 25.9 19.5 1.0 19 11.7 E 24 32 13 17 1021.0 - 0.2
20/10:00pm 25.1 19.6 3.8 25 10.5 E 22 30 12 16 1021.1 - 0.2
20/09:30pm 25.3 19.8 4.1 25 10.5 ENE 22 32 12 17 1021.0 - 0.2
20/09:00pm 24.9 19.9 4.4 26 10.2 E 20 28 11 15 1020.6 1020.6 0.2
20/08:30pm 24.3 20.4 5.5 29 9.5 E 15 22 8 12 1020.4 - 0.2
20/08:00pm 25.2 21.8 6.1 29 9.8 E 13 17 7 9 1020.1 - 0.2
20/07:30pm 26.6 22.4 5.6 26 10.8 E 17 20 9 11 1020.0 - 0.2
20/07:00pm 28.7 23.9 4.7 21 12.3 E 19 26 10 14 1019.7 - 0.2
20/06:30pm 29.8 25.0 4.8 20 12.9 ENE 19 24 10 13 1019.6 - 0.2
20/06:00pm 30.4 25.9 4.4 19 13.4 E 17 22 9 12 1019.5 1019.5 0.2
20/05:30pm 31.3 26.6 5.2 19 13.7 E 19 26 10 14 1019.4 - 0.2
20/05:00pm 31.9 27.6 5.1 18 14.1 E 17 24 9 13 1019.4 - 0.2
20/04:30pm 32.3 27.9 4.5 17 14.5 ENE 17 22 9 12 1019.5 - 0.2
20/04:00pm 29.5 26.7 11.4 32 10.4 E 17 24 9 13 1019.7 - 0.2
20/03:30pm 27.6 24.4 11.3 36 9.3 NE 19 26 10 14 1020.1 - 0.2
20/03:00pm 27.1 24.4 10.5 35 9.3 W 15 17 8 9 1020.6 1020.6 0.2
20/02:30pm 25.9 23.1 10.0 36 8.8 WSW 15 19 8 10 1021.3 - 0.2
20/02:00pm 24.2 20.5 9.4 39 8.0 WSW 19 24 10 13 1021.7 - 0.2
20/01:30pm 23.7 20.1 9.9 41 7.5 SW 19 22 10 12 1022.2 - 0.0
20/01:00pm 22.7 18.9 9.0 41 7.3 WSW 19 20 10 11 1022.4 - 0.0
20/12:30pm 22.5 19.2 9.7 44 6.9 WSW 17 20 9 11 1022.8 - 0.0
20/12:00pm 22.6 20.2 10.1 45 6.8 WSW 13 17 7 9 1023.1 1023.1 0.0
20/11:30am 21.8 19.6 9.2 44 6.7 WSW 11 15 6 8 1023.5 - 0.0
20/11:00am 20.8 18.9 9.0 46 6.2 W 9 13 5 7 1024.0 - 0.0
20/10:30am 19.9 18.0 9.0 49 5.7 SW 9 11 5 6 1024.2 - 0.0
20/10:00am 18.7 16.9 9.3 54 4.9 WSW 9 13 5 7 1024.3 - 0.0
20/09:30am 18.3 16.4 9.1 55 4.8 W 9 13 5 7 1024.3 - 0.0
20/09:00am 18.3 16.6 8.3 52 5.1 W 7 9 4 5 1024.3 1024.3 0.0
20/08:30am 17.2 16.9 8.6 57 4.4 CALM 0 6 0 3 1024.3 - 0.0
20/08:00am 16.1 14.9 9.5 65 3.4 SSW 6 6 3 3 1024.1 - 0.0
20/07:30am 14.8 13.1 9.8 72 2.6 SW 9 9 5 5 1023.8 - 0.0
20/07:00am 13.6 13.0 8.8 73 2.4 S 2 6 1 3 1023.7 - 0.0
20/06:30am 13.5 12.1 8.7 73 2.4 E 6 11 3 6 1023.5 - 0.0
20/06:00am 14.0 12.4 8.8 71 2.6 SSE 7 11 4 6 1023.3 1023.3 0.0
20/05:30am 13.5 11.6 8.9 74 2.3 NW 9 15 5 8 1023.1 - 0.0
20/05:00am 13.9 12.3 8.9 72 2.5 WNW 7 13 4 7 1022.8 - 0.0
20/04:30am 13.8 13.2 8.8 72 2.5 NE 2 9 1 5 1022.5 - 0.0
20/04:00am 13.5 11.1 8.7 73 2.4 NE 11 13 6 7 1022.3 - 0.0
20/03:30am 13.3 11.9 8.9 74 2.2 ESE 6 13 3 7 1022.4 - 0.0
20/03:00am 14.1 13.2 9.2 72 2.5 SE 4 6 2 3 1022.6 1022.6 0.0
20/02:30am 14.4 13.6 9.7 73 2.4 E 4 9 2 5 1022.8 - 0.0
20/02:00am 15.6 13.4 9.4 66 3.2 ESE 11 13 6 7 1022.6 - 0.0
20/01:30am 16.2 13.9 9.0 62 3.7 SE 11 17 6 9 1022.7 - 0.0
20/01:00am 16.6 13.9 9.0 61 3.9 SE 13 15 7 8 1022.6 - 0.0
20/12:30am 16.9 11.5 9.4 61 3.9 ESE 28 39 15 21 1022.6 - 0.0
20/12:00am 16.9 12.1 8.9 59 4.1 ESE 24 35 13 19 1022.7 1022.7 0.0
 
Date/Time
CDT
Temp
°C
App
Temp
°C
Dew
Point
Rel
Hum
%
Delta-T
°C
Wind Press
QNH
hPa
Press
MSL
hPa
Rain
since 9 am
mm
Dir
 
Spd
km/h
Gust
km/h
Spd
kts
Gust
kts
19/11:30pm 17.6 13.0 8.2 54 4.8 ESE 22 30 12 16 1022.3 - 0.0
19/11:00pm 17.9 12.3 7.3 50 5.3 ESE 26 33 14 18 1022.2 - 0.0
19/10:30pm 18.6 13.8 5.4 42 6.4 SE 20 33 11 18 1022.1 - 0.0
19/10:00pm 18.5 12.9 5.2 41 6.4 SE 24 33 13 18 1022.3 - 0.0
19/09:30pm 18.4 12.0 5.1 41 6.4 SE 28 37 15 20 1022.2 - 0.0
19/09:00pm 18.9 13.2 5.0 40 6.7 ESE 24 33 13 18 1022.1 1022.1 0.0
19/08:30pm 18.4 13.4 8.2 51 5.2 SE 24 35 13 19 1022.1 - 0.0
19/08:00pm 17.5 13.0 10.1 62 3.9 SSE 24 30 13 16 1021.8 - 0.0
19/07:30pm 18.2 14.6 10.5 60 4.1 SSE 20 28 11 15 1021.1 - 0.0
19/07:00pm 19.9 15.6 10.7 55 5.0 SE 24 35 13 19 1020.8 - 0.0
19/06:30pm 21.5 15.8 11.2 52 5.7 SSE 32 41 17 22 1020.5 - 0.0
19/06:00pm 24.7 19.1 11.6 44 7.4 SSE 32 39 17 21 1020.2 1020.2 0.0
19/05:30pm 27.3 24.3 11.8 38 8.9 S 19 32 10 17 1019.6 - 0.0
19/05:26pm 27.2 24.9 11.9 38 8.8 SSW 15 22 8 12 1019.5 - 0.0
19/05:00pm 22.2 19.6 12.1 52 5.7 SSW 17 22 9 12 1019.7 - 0.0
19/04:30pm 22.4 18.8 11.7 50 6.0 SW 22 28 12 15 1019.8 - 0.0
19/04:00pm 26.4 21.7 3.2 22 11.4 SW 17 22 9 12 1019.8 - 0.0
19/03:30pm 28.8 22.7 -3.9 11 14.4 SSW 19 26 10 14 1019.8 - 0.0
19/03:00pm 28.4 22.4 -1.5 14 13.7 SSW 20 28 11 15 1020.0 1020.0 0.0
19/02:30pm 28.1 21.6 0.4 16 13.1 SSW 24 32 13 17 1020.2 - 0.0

Other Formats:

Comma delimited format used in spreadsheet applications
http://www.bom.gov.au/fwo/IDS60801/IDS60801.94672.axf

JavaScript Object Notation format (JSON) in row-major order
http://www.bom.gov.au/fwo/IDS60801/IDS60801.94672.json